Location: Allonne
(49.4086°N, 2.1143°E)
Time: 07:51:49
(UTC+00:00)

Cosmos 1869 - Pass Details

Date: 03 February 2023
Orbit: 510 x 550 km, 82.5° (Epoch: 21 March)

Event Time Altitude Azimuth Distance (km) Brightness Sun altitude
Rises 19:01:07 0° 345° (NNW) 2,661 7.0 -21.4°
Reaches altitude 10° 19:03:18 10° 340° (NNW) 1,774 6.1 -21.8°
Maximum altitude 19:07:03 48° 265° (W) 698 4.2 -22.4°
Drops below altitude 10° 19:10:50 10° 191° (S) 1,784 6.0 -23.0°
Sets 19:13:02 0° 186° (S) 2,678 6.9 -23.3°
